Flag for Qatar Weather past 2 weeks in Al Khor, Qatar

Now
75 °F

Sunny.


Feels Like: 77 °F
Forecast: 65 / 79 °F
Wind: 7 mph from North

Location: Doha International Airport

Current Time: Dec 20, 2014 at 1:37:15 PM

Latest Report: Dec 20, 2014 at 1:00 PM


Visibility: 10 mi

Pressure: 30.12 "Hg

Humidity: 39%

Dew point: 48 °F

Location of Al KhorLocation

Historic Weather in Al Khor — Graph

°F

Al Khor temperature yesterday

Maximum temperature yesterday: 73 °F (at 1:30 PM)
Minimum temperature yesterday: 63 °F (at 5:00 AM)
Average temperature yesterday: 68 °F

Past Weeks' High & Low Weather Summary

 TemperatureHumidityPressure
High82 °F (Dec 11, 1:30 PM)100% (Dec 11, 3:00 AM)30.27 "Hg (Dec 11, 3:00 AM)
Low61 °F (Dec 20, 4:30 AM)28% (Dec 11, 1:30 PM)30.04 "Hg (Dec 11, 2:00 PM)
Average71 °F72%30.13 "Hg
* Reported Dec 5 12:00 Noon — Dec 20 12:00 Noon, Al Khor, Weather by CustomWeather, © 2014

Note: Actual official high and low records may vary slightly from our data, if they occured in-between our weather recording intervals... More about our weather records

Advertising

Al Khor weather history for previous 24 hours

 ConditionsComfort  
Time TempWeatherWind HumidityBarometerVisibility
12:00 PM
Dec 20
73 °FPassing clouds.7 mph47%30.15 "HgN/A
10:00 AM72 °FPassing clouds.6 mph57%30.21 "HgN/A
9:00 AM70 °FPassing clouds.3 mph60%30.24 "HgN/A
8:00 AM66 °FPassing clouds.3 mph73%30.21 "Hg5 mi
7:30 AM64 °FPassing clouds.3 mph78%30.21 "Hg5 mi
7:00 AM63 °FPassing clouds.2 mph83%30.21 "Hg5 mi
6:30 AM63 °FPassing clouds.2 mph83%30.18 "Hg4 mi
6:00 AM63 °FPassing clouds.2 mph83%30.18 "Hg5 mi
5:30 AM63 °FPassing clouds.3 mph83%30.18 "Hg5 mi
5:00 AM63 °FPassing clouds.2 mph83%30.18 "Hg5 mi
4:30 AM61 °FPassing clouds.No wind83%30.18 "Hg5 mi
4:00 AM63 °FPassing clouds.No wind83%30.15 "Hg5 mi
3:30 AM63 °FPassing clouds.2 mph83%30.15 "Hg5 mi
3:00 AM63 °FPassing clouds.3 mph83%30.15 "Hg5 mi
2:00 AM63 °FPassing clouds.2 mph77%30.18 "Hg6 mi
1:00 AM64 °FClear.No wind78%30.18 "Hg6 mi
12:00 AM66 °FClear.2 mph73%30.18 "Hg6 mi
11:00 PM
Dec 19
66 °FPassing clouds.3 mph73%30.18 "HgN/A
10:30 PM66 °FClear.3 mph73%30.18 "Hg10 mi
10:00 PM66 °FClear.5 mph73%30.21 "Hg10 mi
9:30 PM66 °FClear.5 mph73%30.21 "Hg10 mi
9:00 PM68 °FClear.6 mph64%30.21 "Hg10 mi
8:00 PM68 °FPassing clouds.8 mph64%30.21 "HgN/A
7:00 PM70 °FPassing clouds.5 mph60%30.21 "HgN/A
6:30 PM70 °FPassing clouds.3 mph64%30.21 "HgN/A
6:00 PM70 °FPassing clouds.3 mph69%30.18 "HgN/A
5:30 PM72 °FPassing clouds.3 mph65%30.18 "HgN/A
5:00 PM72 °FPassing clouds.5 mph61%30.18 "HgN/A
4:00 PM72 °FPassing clouds.7 mph57%30.15 "HgN/A
3:30 PM73 °FPassing clouds.7 mph53%30.15 "HgN/A
3:00 PM73 °FPassing clouds.6 mph53%30.15 "HgN/A
2:30 PM73 °FPassing clouds.7 mph53%30.15 "HgN/A
2:00 PM73 °FPassing clouds.8 mph53%30.15 "HgN/A
1:30 PM73 °FPassing clouds.7 mph53%30.18 "HgN/A
1:00 PM72 °FPassing clouds.8 mph57%30.18 "HgN/A
Weather by CustomWeather, © 2014

See weather overviewHow to use our weather pages